Date String (YYYY-MM-DD hh:mm:ss) UTC,Instrument flags,Ambient pressure (hPa),Sample flow (lpm),Bypass flow (lpm),Sample temperature (°C),Ambient temperature (°C),ASC tube jacket temperature (°C),LED temperature (°C),Box temperature (°C),Sample RH (%),Span deviation,Mass concentration (μg/m³),Mass concentration (μg/m³),Mass concentration (μg/m³)
DateTimeUTC,F1_M11,P_M11,Q1_M11,Q2_M11,T1_M11,T2_M11,T3_M11,T4_M11,T5_M11,U1_M11,ZSPAN_M11,X0_M11,X2_M11,X1_M11
2022-01-10 00:00:00,,0836.8,5.00,0.00,24.0,23.3,00.0,33.1,25.7,11.4,0000.0,0010.50,0006.45,0005.98
2022-01-10 00:01:00,,0836.8,5.01,0.00,24.0,23.3,00.0,33.1,25.7,11.5,0000.0,0010.60,0006.47,0006.00
2022-01-10 00:02:00,,0836.8,4.99,0.00,24.0,23.3,00.0,33.1,25.7,11.6,0000.0,0010.69,0006.50,0006.00
2022-01-10 00:03:00,,0836.9,5.00,0.00,24.0,23.3,00.0,33.1,25.7,11.6,0000.0,0010.57,0006.46,0006.00
2022-01-10 00:04:00,,0837.0,5.00,0.00,24.0,23.3,00.0,33.1,25.7,11.6,0000.0,0011.53,0006.48,0006.01
2022-01-10 00:05:00,,0837.1,5.01,0.00,24.0,23.3,00.0,33.1,25.8,11.6,0000.0,0011.59,0006.48,0006.00
2022-01-10 00:06:00,,0837.2,4.99,0.00,24.0,23.3,00.0,33.1,25.8,11.6,0000.0,0011.55,0006.46,0006.00
2022-01-10 00:07:00,,0837.1,4.99,0.00,24.0,23.3,00.0,33.1,25.8,11.6,0000.0,0011.35,0006.45,0005.98
2022-01-10 00:08:00,,0837.2,5.00,0.00,24.0,23.3,00.0,33.1,25.8,11.5,0000.0,0010.70,0006.42,0005.98
2022-01-10 00:09:00,,0837.2,5.01,0.00,24.0,23.4,00.0,33.1,25.9,11.4,0000.0,0010.76,0006.43,0005.97
2022-01-10 00:10:00,,0837.2,5.01,0.00,24.0,23.4,00.0,33.1,25.9,11.4,0000.0,0010.76,0006.46,0005.98
2022-01-10 00:11:00,,0837.2,5.00,0.00,24.1,23.4,00.0,33.1,25.9,11.4,0000.0,0010.68,0006.42,0005.97
2022-01-10 00:12:00,,0837.2,4.99,0.00,24.1,23.4,00.0,33.1,25.9,11.3,0000.0,0010.58,0006.40,0005.95
2022-01-10 00:13:00,,0837.1,5.00,0.00,24.1,23.4,00.0,33.1,25.9,11.2,0000.0,0010.57,0006.39,0005.95
2022-01-10 00:14:00,,0837.2,4.99,0.00,24.1,23.4,00.0,33.1,25.9,11.2,0000.0,0010.54,0006.38,0005.95
2022-01-10 00:15:00,,0837.2,5.00,0.00,24.1,23.4,00.0,33.1,25.9,11.2,0000.0,0009.85,0006.35,0005.93
2022-01-10 00:16:00,,0837.2,5.01,0.00,24.1,23.4,00.0,33.1,25.9,11.2,0000.0,0009.50,0006.32,0005.91
2022-01-10 00:17:00,,0837.3,4.99,0.00,24.1,23.4,00.0,33.1,25.9,11.2,0000.0,0009.33,0006.29,0005.90
2022-01-10 00:18:00,,0837.3,5.01,0.00,24.1,23.4,00.0,33.1,25.9,11.1,0000.0,0009.31,0006.29,0005.89
2022-01-10 00:19:00,,0837.3,4.99,0.00,24.1,23.4,00.0,33.1,25.9,11.2,0000.0,0009.48,0006.31,0005.89
2022-01-10 00:20:00,,0837.4,5.01,0.00,24.1,23.4,00.0,33.1,25.9,11.2,0000.0,0010.14,0006.29,0005.89
2022-01-10 00:21:00,,0837.4,4.99,0.00,24.1,23.4,00.0,33.1,25.9,11.2,0000.0,0010.07,0006.25,0005.87
2022-01-10 00:22:00,,0837.4,5.02,0.00,24.1,23.4,00.0,33.1,25.9,11.2,0000.0,0010.13,0006.23,0005.85
2022-01-10 00:23:00,,0837.4,4.99,0.00,24.1,23.4,00.0,33.1,25.9,11.2,0000.0,0010.59,0006.21,0005.83
2022-01-10 00:24:00,,0837.4,5.00,0.00,24.1,23.4,00.0,33.1,25.9,11.2,0000.0,0010.54,0006.18,0005.83
2022-01-10 00:25:00,,0837.5,5.01,0.00,24.1,23.4,00.0,33.1,25.9,11.2,0000.0,0010.57,0006.19,0005.83
2022-01-10 00:26:00,,0837.5,4.99,0.00,24.1,23.4,00.0,33.1,25.9,11.1,0000.0,0010.56,0006.21,0005.85
2022-01-10 00:27:00,,0837.5,5.01,0.00,24.1,23.4,00.0,33.1,25.9,11.1,0000.0,0010.57,0006.23,0005.86
2022-01-10 00:28:00,,0837.6,5.00,0.00,24.1,23.4,00.0,33.1,25.9,11.2,0000.0,0010.68,0006.28,0005.87
2022-01-10 00:29:00,,0837.7,5.00,0.00,24.1,23.3,00.0,33.1,25.9,11.2,0000.0,0010.86,0006.32,0005.90
2022-01-10 00:30:00,,0837.7,4.99,0.00,24.1,23.3,00.0,33.1,25.9,11.2,0000.0,0011.04,0006.34,0005.91
2022-01-10 00:31:00,,0837.8,5.00,0.00,24.1,23.3,00.0,33.1,25.9,11.2,0000.0,0010.29,0006.33,0005.92
2022-01-10 00:32:00,,0837.8,5.01,0.00,24.1,23.3,00.0,33.1,25.9,11.2,0000.0,0010.28,0006.33,0005.93
2022-01-10 00:33:00,,0837.8,5.00,0.00,24.1,23.3,00.0,33.1,25.9,11.2,0000.0,0010.45,0006.35,0005.94
2022-01-10 00:34:00,,0837.8,5.01,0.00,24.1,23.3,00.0,33.1,25.9,11.2,0000.0,0010.34,0006.34,0005.96
2022-01-10 00:35:00,,0837.8,5.00,0.00,24.1,23.3,00.0,33.1,25.9,11.3,0000.0,0010.42,0006.38,0005.97
2022-01-10 00:36:00,,0837.8,5.00,0.00,24.1,23.3,00.0,33.0,25.9,11.3,0000.0,0010.59,0006.41,0005.98
2022-01-10 00:37:00,,0837.9,5.01,0.00,24.1,23.3,00.0,33.1,25.9,11.3,0000.0,0010.77,0006.42,0005.98
2022-01-10 00:38:00,,0837.8,5.00,0.00,24.1,23.3,00.0,33.1,25.9,11.3,0000.0,0010.79,0006.41,0005.98
2022-01-10 00:39:00,,0837.9,5.01,0.00,24.1,23.3,00.0,33.0,25.9,11.3,0000.0,0010.97,0006.40,0005.99
2022-01-10 00:40:00,,0837.8,5.00,0.00,24.1,23.3,00.0,33.0,25.9,11.3,0000.0,0011.47,0006.41,0006.00
2022-01-10 00:41:00,,0837.8,4.99,0.00,24.1,23.3,00.0,33.0,25.9,11.3,0000.0,0011.57,0006.39,0006.00
2022-01-10 00:42:00,,0837.8,5.01,0.00,24.1,23.3,00.0,33.0,25.9,11.3,0000.0,0011.80,0006.42,0006.02
2022-01-10 00:43:00,,0837.9,4.98,0.00,24.1,23.3,00.0,33.0,25.9,11.4,0000.0,0011.81,0006.48,0006.04
2022-01-10 00:44:00,,0838.0,5.01,0.00,24.1,23.3,00.0,33.0,25.9,11.4,0000.0,0011.66,0006.52,0006.06
2022-01-10 00:45:00,,0837.9,4.99,0.00,24.1,23.3,00.0,33.0,25.9,11.4,0000.0,0011.43,0006.56,0006.08
2022-01-10 00:46:00,,0838.0,5.01,0.00,24.1,23.3,00.0,33.0,25.9,11.4,0000.0,0011.26,0006.57,0006.11
2022-01-10 00:47:00,,0838.0,5.02,0.00,24.1,23.3,00.0,33.0,25.9,11.4,0000.0,0011.25,0006.58,0006.13
2022-01-10 00:48:00,,0837.9,4.99,0.00,24.1,23.3,00.0,33.0,25.9,11.4,0000.0,0011.20,0006.60,0006.15
2022-01-10 00:49:00,,0837.9,5.00,0.00,24.1,23.3,00.0,33.0,25.9,11.4,0000.0,0011.49,0006.60,0006.16
2022-01-10 00:50:00,,0837.9,5.01,0.00,24.0,23.2,00.0,33.0,25.9,11.4,0000.0,0011.51,0006.64,0006.18
2022-01-10 00:51:00,,0838.0,5.00,0.00,24.0,23.2,00.0,33.0,25.8,11.5,0000.0,0011.05,0006.65,0006.19
2022-01-10 00:52:00,,0837.9,4.99,0.00,24.0,23.2,00.0,33.0,25.8,11.5,0000.0,0010.85,0006.69,0006.22
2022-01-10 00:53:00,,0838.0,5.00,0.00,24.0,23.2,00.0,33.0,25.8,11.5,0000.0,0010.77,0006.72,0006.23
2022-01-10 00:54:00,,0838.0,4.99,0.00,24.0,23.2,00.0,33.0,25.8,11.5,0000.0,0010.91,0006.76,0006.25
2022-01-10 00:55:00,,0838.0,5.00,0.00,24.0,23.2,00.0,33.0,25.8,11.6,0000.0,0010.92,0006.76,0006.26
2022-01-10 00:56:00,,0838.0,5.00,0.00,24.0,23.2,00.0,33.0,25.8,11.6,0000.0,0010.96,0006.77,0006.26
2022-01-10 00:57:00,,0838.0,5.00,0.00,24.0,23.2,00.0,33.0,25.8,11.6,0000.0,0010.94,0006.78,0006.26
2022-01-10 00:58:00,,0838.0,4.99,0.00,24.0,23.2,00.0,33.0,25.7,11.6,0000.0,0010.93,0006.81,0006.27
2022-01-10 00:59:00,,0838.1,5.02,0.00,24.0,23.2,00.0,33.0,25.8,11.6,0000.0,0010.93,0006.80,0006.26
